Regional Weather Roundup
Issued by NWS Shreveport, LA

Home | Current Version | Previous Version | Text Only | Print | Product List | Glossary On
Versions: 1 2 3 4 5 6 7 8 9 10 11 12 13 14 15 16 17 18 19 20 21 22 23 24 25 26 27 28 29 30 31 32 33 34 35 36 37 38 39 40 41 42 43 44 45 46 47 48 49 50
420
ASUS44 KSHV 131310
RWRSHV

WEATHER ROUNDUP FOR THE FOUR STATE AREA
NATIONAL WEATHER SERVICE SHREVEPORT LA
700 AM CST WED NOV 13 2019

NOTE:  "FAIR" INDICATES FEW OR NO CLOUDS BELOW 12000 FEET
WITH NO SIGNIFICANT WEATHER AND/OR OBSTRUCTIONS TO VISIBILITY.

!LAZ001-LAZ014-TXZ097-131400
SHREVEPORT...MONROE...TEXARKANA RADIOS

CITY           SKY/WX    TMP DP  RH WIND       PRES   REMARKS
SHREVEPORT     PTCLDY    22  17  81 S3        30.38R
MONROE         NOT AVBL
NATCHITOCHES     N/A     22  18  86 CALM      30.40R
TEXARKANA      CLEAR     19  16  88 CALM      30.37R
$$

!LAZ001-LAZ014-TXZ097-131400
OTHER LOCATIONS...

CITY           SKY/WX    TMP DP  RH WIND       PRES   REMARKS
DOWNTOWN SHV   CLEAR     23  16  74 CALM      30.39R
BOSSIER CITY   NOT AVBL
RUSTON           N/A     20  17  86 NE3       30.39F
LITTLE ROCK    PTCLDY    19  15  84 SE3       30.39S
EL DORADO        N/A     19  17  92 NE3       30.37F
JACKSON          N/A     23  14  68 NE6       30.34F WCI  16
NEW ORLEANS    MOCLDY    35  23  61 NE9       30.33R WCI  28
HOUSTON        MOCLDY    31  25  78 NE7       30.36F WCI  24
LUFKIN         CLEAR     22  19  89 CALM      30.35F
TYLER          CLEAR     23  17  78 SE7       30.33F WCI  15
DAL FT WORTH   MOCLDY    25  17  72 S7        30.28F WCI  17
$$


!TXZ136-TXZ165-131400
TYLER...LUFKIN RADIOS

CITY           SKY/WX    TMP DP  RH WIND       PRES   REMARKS
TYLER          CLEAR     23  17  78 SE7       30.33F WCI  15
GILMER         SUNNY     19  18  93 CALM      30.36F
LONGVIEW       CLEAR    N/A N/A N/A CALM      30.36F
LUFKIN         CLEAR     22  19  89 CALM      30.35F
$$

!TXZ136-TXZ165-131400
OTHER LOCATIONS...

CITY           SKY/WX    TMP DP  RH WIND       PRES   REMARKS
NACOGDOCHES    CLEAR     17  15  92 CALM      30.36F
BEAUMONT         N/A     29  22  75 NE8       30.36F WCI  21
HOUSTON        MOCLDY    31  25  78 NE7       30.36F WCI  24
COLLEGE STN    CLEAR     30  23  75 CALM      30.35S
AUSTIN         MOCLDY    32  24  72 CALM      30.33R
DAL FT WORTH   MOCLDY    25  17  72 S7        30.28F WCI  17
TEXARKANA      CLEAR     19  16  88 CALM      30.37R
SHREVEPORT     PTCLDY    22  17  81 S3        30.38R
FORT POLK        N/A     21  19  89 CALM      30.36R
LAKE CHARLES     N/A     27  21  78 NE6       30.37R WCI  20
$$




USA.gov is the U.S. government's official web portal to all federal, state and local government web resources and services.